Location: Proctor
(47.8934°N, 114.3048°W)
Time: 21:21:12
(UTC+00:00)

Tiros 1 despin weight - Pass Details

Date: 03 July 2024
Orbit: 576 x 620 km, 48.2° (Epoch: 19 July)

Event Time Altitude Azimuth Distance (km) Brightness Sun altitude
Rises 16:08:20 0° 237° (WSW) 2,850 ? 41.1°
Reaches altitude 10° 16:10:39 10° 233° (SW) 1,956 ? 41.5°
Maximum altitude 16:15:02 54° 157° (SSE) 750 ? 42.2°
Drops below altitude 10° 16:19:29 10° 80° (E) 1,983 ? 42.9°
Sets 16:21:50 0° 76° (ENE) 2,894 ? 43.3°
